Regional Weather Roundup
Issued by NWS

Home | Current Version | Previous Version | Text Only | Print | Product List | Glossary Off
Versions: 1 2 3 4 5 6 7 8 9 10 11 12 13 14 15 16 17 18 19 20 21 22 23 24 25 26 27 28 29 30 31 32 33 34 35 36 37 38 39 40 41 42 43 44 45 46 47 48 49 50

000
ASUS44 KMEG 220610
RWRTN
TENNESSEE HOURLY STATE WEATHER ROUNDUP
NATIONAL WEATHER SERVICE MEMPHIS TN
100 AM CDT THU JUN 22 2017

TNZ002-004-019-021-049-052-054-088>092-220700-
WEST TENNESSEE

CITY           SKY/WX    TMP DP  RH WIND       PRES   REMARKS
MEMPHIS INTL   CLOUDY    75  72  90 SE9       29.90S
NWS MEMPHIS      N/A     75 N/A N/A MISG        N/A
JACKSON        CLOUDY    76  70  82 SE5       29.94F
SOMERVILLE     CLOUDY    75  70  83 VRB5G12   29.92S
COVINGTON      CLOUDY    75  70  83 SE7       29.92F
UNION CITY     CLEAR     75  70  83 SE5       29.93F
BOLIVAR        CLOUDY    73  70  88 E6        29.93F
PARIS          PTCLDY    73  70  88 SE5       29.96S
HUNTINGDON     CLOUDY    73  70  88 SE5       29.95S
LEXINGTON      CLOUDY    73  70  88 CALM      29.96F
SELMER         CLOUDY    73  70  88 SE8       29.96S
SAVANNAH       CLOUDY    73  70  88 SE8       29.96S
$$

TNZ008-025-027-028-033-062-065-066-220700-
NORTH MIDDLE TENNESSEE

CITY           SKY/WX    TMP DP  RH WIND       PRES   REMARKS
NASHVILLE      CLOUDY    75  67  76 SE6       30.02F
PORTLAND       CLEAR     73  68  83 S5        30.02F
CLARKSVILLE    MOCLDY    74  67  78 E6        29.99F
SMYRNA         CLOUDY    74  68  81 E5        30.03S
COOKEVILLE     CLEAR     73  66  78 S5        30.06F
GALLATIN       CLEAR     73  68  83 CALM      30.05F
CROSSVILLE     CLOUDY    69  66  90 CALM      30.12F
$$

TNZ061-075-076-078-094-096-097-220700-
SOUTH MIDDLE TENNESSEE

CITY           SKY/WX    TMP DP  RH WIND       PRES   REMARKS
FAYETTEVILLE   MOCLDY    73  70  88 E7        30.04S
TULLAHOMA      PTCLDY    73  64  73 SE12      30.06F
WINCHESTER     PTCLDY    73  66  78 SE7       30.06F
MCMINNVILLE    CLEAR     73  70  88 CALM      30.06F
COLUMBIA       PTCLDY    73  70  88 CALM      29.98F
SHELBYVILLE    PTCLDY    73  68  83 SE8       30.03S
$$

TNZ017-018-042-046-047-220700-
NORTHEAST TENNESSEE

CITY           SKY/WX    TMP DP  RH WIND       PRES   REMARKS
TRI CITIES     MOCLDY    66  63  90 CALM      30.13S
ELIZABETHTON   PTCLDY    64  63  94 CALM      30.14S
$$

TNZ012-013-036-069-073-074-220700-
CENTRAL EAST TENNESSEE

CITY           SKY/WX    TMP DP  RH WIND       PRES   REMARKS
KNOXVILLE      CLOUDY    73  66  78 SW9       30.09F
OAK RIDGE      CLOUDY    74  67  78 VRB3      30.10F
DOWNTOWN KNOXV   N/A     70  68  94 CALM      30.08F
GATLINBURG     CLEAR     68  66  94 E5        30.09F
MORRISTOWN     CLEAR     70  68  94 CALM      30.10F
JACKSBORO        N/A     70  68  94 CALM      30.13S
$$

TNZ083-085-099-220700-
SOUTHEAST TENNESSEE

CITY           SKY/WX    TMP DP  RH WIND       PRES   REMARKS
CHATTANOOGA    CLOUDY    73  67  81 E3        30.08F
$$

SKY/WX REPORTED AS FAIR MEANS FEW OR NO CLOUDS BELOW
12 THOUSAND FEET.





USA.gov is the U.S. government's official web portal to all federal, state and local government web resources and services.